STARLINK-1986 (47582 NORAD) Tracking and Keplerian Element Data

This shows tracking and keplerian element data for the satellite.

Feedback or suggestion? Click here.




ElementValue
Catalog47582
NameSTARLINK-1986
Epoch Orbit407
Epoch Day57.16667824
Epoch Year2021
RAAN16.4311
Inclination53.0511
Eccentricity0.0001129
Argument of Perigee70.4354
Mean Anonmoly263.0001
Mean Motion15.62704024
Decay Rate-5.88E-05
L11 47582U 21009AL 21057.16667824 -.00005880 00000-0 -58550-4 0 9993
L22 47582 53.0511 16.4311 0001129 70.4354 263.0001 15.62704024 4079

Live tracking and technical data element details for STARLINK-1986 (NORAD 47582). STARLINK-1986 can be tracked NOW for your location showing map with azimuth and elevation plus other details from your city location.

Track the satellite on the map from your city or location and see movement details for azimuth, elevation, latitude, longitude, range, height, and movement on the map or in text.







IsCatalogInMostPopularTable: catalog: 47582, numindb: 1
Update: records affected: 1



GetName: 47582 STARLINK-1986

Hit Count: updated at: Fri, 26 Feb 2021 09:37:36 GMT